AAL2375 KMIA-KDFW

Flight info

Callsign AAL2375
Flight time N/A
Altitude 40000
Route GLADZ4 BAGGS REMIS Y280 REDFN Q105 HRV PNUTS BEREE3
Aircraft B772/H-SDE2E3FGHIJ5LORVWXY/LB1D1

Departure

Time 2026-05-08 01:57
Airport Miami International Airport (KMIA)

Arrival

Time N/A
Airport Dallas Fort Worth International Airport (KDFW)
Time Latitude Longitude Altitude Speed Heading
2026-05-08 00:37 25.79795 -80.27595 18 ft 0 kts 178°
2026-05-08 01:27 25.79805 -80.27595 18 ft 2 kts 178°
2026-05-08 01:28 25.79820 -80.27596 18 ft 2 kts 178°
2026-05-08 01:28 25.79835 -80.27597 18 ft 2 kts 178°
2026-05-08 01:28 25.79849 -80.27598 18 ft 2 kts 179°
2026-05-08 01:28 25.79864 -80.27596 18 ft 2 kts 202°
2026-05-08 01:29 25.79877 -80.27588 18 ft 2 kts 221°
2026-05-08 01:29 25.79887 -80.27576 18 ft 2 kts 240°
2026-05-08 01:29 25.79893 -80.27561 18 ft 2 kts 258°
2026-05-08 01:29 25.79894 -80.27551 18 ft 1 kts 269°
2026-05-08 01:30 25.79894 -80.27548 18 ft 0 kts 269°
2026-05-08 01:38 25.79892 -80.27555 18 ft 5 kts 242°
2026-05-08 01:39 25.79844 -80.27590 18 ft 5 kts 193°
2026-05-08 01:39 25.79818 -80.27591 18 ft 0 kts 175°
2026-05-08 01:40 25.79816 -80.27591 18 ft 2 kts 178°
2026-05-08 01:40 25.79802 -80.27591 18 ft 3 kts 182°
2026-05-08 01:40 25.79791 -80.27593 18 ft 0 kts 182°
2026-05-08 01:46 25.79793 -80.27592 18 ft 1 kts 174°
2026-05-08 01:46 25.79808 -80.27595 18 ft 2 kts 169°
2026-05-08 01:46 25.79822 -80.27597 18 ft 2 kts 179°
2026-05-08 01:46 25.79837 -80.27598 18 ft 2 kts 179°
2026-05-08 01:47 25.79852 -80.27598 18 ft 2 kts 181°
2026-05-08 01:47 25.79867 -80.27595 18 ft 2 kts 206°
2026-05-08 01:47 25.79879 -80.27586 18 ft 2 kts 224°
2026-05-08 01:48 25.79894 -80.27557 18 ft 2 kts 263°
2026-05-08 01:48 25.79894 -80.27550 18 ft 1 kts 269°
2026-05-08 01:48 25.79894 -80.27548 18 ft 0 kts 269°
2026-05-08 01:50 25.79894 -80.27555 18 ft 5 kts 270°
2026-05-08 01:50 25.79910 -80.27666 18 ft 18 kts 281°
2026-05-08 01:50 25.79940 -80.27779 18 ft 15 kts 285°
2026-05-08 01:51 25.79960 -80.27891 18 ft 4 kts 275°
2026-05-08 01:51 25.79961 -80.27922 18 ft 0 kts 270°
2026-05-08 01:51 25.79961 -80.27985 18 ft 16 kts 270°
2026-05-08 01:51 25.79955 -80.28153 18 ft 26 kts 268°
2026-05-08 01:52 25.79948 -80.28356 18 ft 22 kts 267°
2026-05-08 01:52 25.79944 -80.28535 18 ft 24 kts 270°
2026-05-08 01:52 25.79938 -80.28735 18 ft 27 kts 266°
2026-05-08 01:52 25.79928 -80.28934 18 ft 19 kts 267°
2026-05-08 01:53 25.79920 -80.29097 18 ft 22 kts 267°
2026-05-08 01:53 25.79913 -80.29253 18 ft 18 kts 266°
2026-05-08 01:53 25.79906 -80.29408 18 ft 21 kts 267°
2026-05-08 01:53 25.79898 -80.29572 18 ft 13 kts 266°
2026-05-08 01:54 25.79894 -80.29688 18 ft 16 kts 268°
2026-05-08 01:54 25.79891 -80.29826 18 ft 18 kts 269°
2026-05-08 01:54 25.79900 -80.29920 18 ft 7 kts 279°
2026-05-08 01:54 25.79901 -80.29926 18 ft 0 kts 279°
2026-05-08 01:55 25.79905 -80.29936 18 ft 0 kts 296°
2026-05-08 01:55 25.79925 -80.29974 18 ft 11 kts 300°
2026-05-08 01:55 25.79938 -80.30001 18 ft 3 kts 299°
2026-05-08 01:56 25.79966 -80.30055 18 ft 14 kts 302°
2026-05-08 01:56 25.80062 -80.30108 18 ft 11 kts 43°
2026-05-08 01:56 25.80074 -80.30053 18 ft 0 kts 85°
2026-05-08 01:57 25.80091 -80.29648 18 ft 107 kts 89°
2026-05-08 01:57 25.80148 -80.28468 159 ft 186 kts 88°
2026-05-08 01:57 25.80284 -80.26978 1093 ft 204 kts 87°
2026-05-08 01:57 25.80347 -80.25520 2306 ft 197 kts 88°
2026-05-08 01:58 25.80401 -80.23953 3034 ft 213 kts 87°
2026-05-08 01:58 25.80458 -80.22264 3814 ft 228 kts 86°
2026-05-08 01:58 25.80518 -80.20470 4569 ft 244 kts 85°
2026-05-08 01:58 25.80882 -80.18594 5347 ft 257 kts 64°
2026-05-08 01:59 25.81943 -80.17002 6098 ft 269 kts 38°
2026-05-08 01:59 25.83614 -80.16052 6993 ft 275 kts 12°
2026-05-08 01:59 25.85497 -80.15835 7956 ft 279 kts
2026-05-08 01:59 25.87442 -80.15784 8891 ft 284 kts
2026-05-08 02:00 25.89443 -80.15860 9812 ft 290 kts 349°
2026-05-08 02:00 25.91396 -80.16417 10662 ft 298 kts 342°
2026-05-08 02:00 25.93359 -80.17312 11296 ft 315 kts 332°
2026-05-08 02:00 25.95267 -80.18630 11935 ft 331 kts 322°
2026-05-08 02:01 25.97004 -80.20361 12547 ft 346 kts 312°
2026-05-08 02:01 25.98506 -80.22528 13140 ft 361 kts 302°
2026-05-08 02:01 25.99643 -80.25057 13732 ft 375 kts 291°
2026-05-08 02:01 26.00341 -80.27895 14347 ft 388 kts 280°
2026-05-08 02:02 26.00534 -80.30910 15119 ft 395 kts 269°
2026-05-08 02:02 26.00340 -80.33961 16002 ft 398 kts 267°
2026-05-08 02:02 26.00148 -80.36999 16836 ft 401 kts 266°
2026-05-08 02:02 25.99644 -80.40064 17644 ft 408 kts 257°
2026-05-08 02:03 25.98655 -80.43020 18444 ft 414 kts 247°
2026-05-08 02:03 25.97192 -80.45782 19278 ft 420 kts 238°
2026-05-08 02:03 25.95493 -80.48413 20090 ft 423 kts 237°
2026-05-08 02:03 25.93716 -80.51068 20827 ft 428 kts 236°
2026-05-08 02:04 25.91925 -80.53693 21568 ft 431 kts 236°
2026-05-08 02:04 25.90100 -80.56338 22331 ft 434 kts 236°
2026-05-08 02:04 25.88263 -80.58981 23043 ft 438 kts 235°
2026-05-08 02:04 25.86374 -80.61681 23709 ft 443 kts 235°
2026-05-08 02:05 25.84494 -80.64359 24377 ft 447 kts 235°
2026-05-08 02:05 25.82557 -80.67108 25024 ft 451 kts 234°
2026-05-08 02:05 25.80625 -80.69855 25671 ft 455 kts 236°
2026-05-08 02:05 25.78933 -80.72785 26281 ft 456 kts 244°
2026-05-08 02:06 25.77648 -80.75996 26878 ft 457 kts 252°
2026-05-08 02:06 25.76689 -80.79360 27468 ft 460 kts 255°
2026-05-08 02:06 25.75774 -80.82750 28071 ft 463 kts 255°
2026-05-08 02:06 25.74844 -80.86193 28656 ft 467 kts 255°
2026-05-08 02:07 25.73920 -80.89605 29220 ft 471 kts 255°
2026-05-08 02:07 25.72973 -80.93090 29805 ft 474 kts 255°
2026-05-08 02:07 25.72020 -80.96587 30561 ft 473 kts 255°
2026-05-08 02:07 25.71073 -81.00053 31455 ft 469 kts 255°
2026-05-08 02:08 25.70134 -81.03487 32337 ft 465 kts 255°
2026-05-08 02:08 25.69212 -81.06853 33122 ft 462 kts 255°
2026-05-08 02:08 25.68280 -81.10255 33923 ft 461 kts 255°
2026-05-08 02:08 25.67345 -81.13661 34673 ft 460 kts 255°
2026-05-08 02:09 25.66510 -81.17078 35389 ft 458 kts 261°
2026-05-08 02:09 25.66096 -81.20600 36111 ft 455 kts 268°
2026-05-08 02:09 25.66135 -81.24131 36711 ft 453 kts 276°
2026-05-08 02:09 25.66611 -81.27552 37207 ft 453 kts 283°
2026-05-08 02:10 25.67515 -81.30872 37669 ft 453 kts 291°
2026-05-08 02:10 25.68833 -81.34066 38138 ft 453 kts 296°
2026-05-08 02:10 25.70277 -81.37159 38600 ft 452 kts 297°
2026-05-08 02:10 25.71704 -81.40216 39089 ft 451 kts 297°
2026-05-08 02:11 25.73134 -81.43301 39575 ft 449 kts 296°
2026-05-08 02:11 25.74562 -81.46401 40002 ft 448 kts 296°
2026-05-08 02:11 25.77384 -81.52564 39996 ft 447 kts 296°
2026-05-08 02:12 25.80186 -81.58718 39997 ft 446 kts 296°
2026-05-08 02:12 25.82987 -81.64891 39998 ft 447 kts 296°
2026-05-08 02:13 25.85767 -81.71032 40004 ft 446 kts 296°
2026-05-08 02:13 25.88813 -81.76962 40003 ft 445 kts 305°
2026-05-08 02:14 25.93178 -81.81883 40006 ft 450 kts 320°
2026-05-08 02:14 25.98173 -81.86068 40011 ft 449 kts 321°
2026-05-08 02:15 26.03174 -81.90249 40008 ft 449 kts 320°
2026-05-08 02:15 26.08136 -81.94413 40010 ft 448 kts 320°
2026-05-08 02:16 26.13100 -81.98589 40013 ft 448 kts 320°
2026-05-08 02:16 26.18090 -82.02794 40011 ft 447 kts 320°
2026-05-08 02:17 26.23025 -82.06960 40009 ft 448 kts 320°
2026-05-08 02:17 26.28030 -82.11188 40009 ft 448 kts 320°
2026-05-08 02:18 26.32970 -82.15368 40007 ft 447 kts 320°
2026-05-08 02:18 26.37946 -82.19583 40007 ft 448 kts 320°
2026-05-08 02:19 26.42887 -82.23772 40006 ft 447 kts 320°
2026-05-08 02:19 26.47834 -82.27972 40005 ft 447 kts 320°
2026-05-08 02:20 26.52770 -82.32167 40004 ft 447 kts 319°
2026-05-08 02:20 26.57732 -82.36389 40003 ft 446 kts 319°
2026-05-08 02:21 26.62640 -82.40569 40004 ft 446 kts 319°
2026-05-08 02:21 26.67582 -82.44783 40003 ft 446 kts 319°
2026-05-08 02:22 26.72513 -82.48993 40002 ft 445 kts 319°
2026-05-08 02:22 26.77433 -82.53198 40001 ft 446 kts 319°
2026-05-08 02:23 26.82359 -82.57412 40001 ft 445 kts 319°
2026-05-08 02:23 26.87270 -82.61619 40000 ft 445 kts 319°
2026-05-08 02:24 26.92187 -82.65836 40007 ft 444 kts 319°
2026-05-08 02:24 26.97090 -82.70045 40009 ft 444 kts 318°
2026-05-08 02:25 27.02004 -82.74268 40010 ft 443 kts 318°
2026-05-08 02:25 27.06865 -82.78450 40008 ft 443 kts 318°
2026-05-08 02:26 27.11459 -82.83044 40013 ft 437 kts 307°
2026-05-08 02:26 27.14698 -82.88720 40012 ft 432 kts 292°
2026-05-08 02:27 27.16848 -82.95010 40009 ft 430 kts 288°
2026-05-08 02:27 27.18889 -83.01289 40008 ft 432 kts 288°
2026-05-08 02:28 27.20918 -83.07592 40007 ft 429 kts 288°
2026-05-08 02:28 27.22932 -83.13886 40008 ft 430 kts 288°
2026-05-08 02:29 27.24944 -83.20200 40004 ft 428 kts 288°
2026-05-08 02:29 27.26944 -83.26492 40006 ft 429 kts 288°
2026-05-08 02:30 27.28933 -83.32764 40001 ft 428 kts 288°
2026-05-08 02:30 27.30920 -83.39046 40005 ft 429 kts 288°
2026-05-08 02:31 27.32908 -83.45338 40003 ft 427 kts 288°
2026-05-08 02:31 27.34896 -83.51645 40001 ft 427 kts 288°
2026-05-08 02:32 27.36865 -83.57903 40000 ft 427 kts 288°
2026-05-08 02:32 27.38837 -83.64178 40000 ft 426 kts 288°
2026-05-08 02:33 27.40807 -83.70460 40010 ft 426 kts 287°
2026-05-08 02:33 27.42779 -83.76759 40010 ft 426 kts 288°
2026-05-08 02:34 27.44739 -83.83034 40010 ft 425 kts 288°
2026-05-08 02:34 27.46692 -83.89296 40011 ft 424 kts 288°
2026-05-08 02:35 27.48641 -83.95557 40009 ft 425 kts 288°
2026-05-08 02:35 27.50584 -84.01809 40002 ft 424 kts 288°
2026-05-08 02:36 27.52528 -84.08076 40003 ft 425 kts 287°
2026-05-08 02:36 27.54470 -84.14346 40007 ft 423 kts 288°
2026-05-08 02:37 27.56396 -84.20575 40003 ft 424 kts 287°
2026-05-08 02:37 27.58316 -84.26798 40006 ft 423 kts 287°
2026-05-08 02:38 27.60251 -84.33082 40004 ft 424 kts 287°
2026-05-08 02:38 27.62165 -84.39306 40002 ft 423 kts 287°
2026-05-08 02:39 27.64086 -84.45566 40002 ft 424 kts 287°
2026-05-08 02:39 27.66003 -84.51826 40003 ft 422 kts 287°
2026-05-08 02:40 27.67920 -84.58095 40001 ft 423 kts 287°
2026-05-08 02:40 27.69826 -84.64339 39996 ft 422 kts 287°
2026-05-08 02:41 27.71739 -84.70617 40012 ft 422 kts 287°
2026-05-08 02:41 27.73632 -84.76842 40008 ft 421 kts 287°
2026-05-08 02:42 27.75525 -84.83079 40009 ft 421 kts 287°
2026-05-08 02:42 27.77421 -84.89338 40008 ft 421 kts 287°
2026-05-08 02:43 27.79314 -84.95596 40008 ft 422 kts 287°
2026-05-08 02:43 27.81197 -85.01833 40007 ft 421 kts 287°
2026-05-08 02:44 27.83072 -85.08057 40007 ft 421 kts 287°
2026-05-08 02:44 27.84954 -85.14314 40003 ft 421 kts 287°
2026-05-08 02:45 27.86824 -85.20541 40001 ft 420 kts 287°
2026-05-08 02:45 27.88691 -85.26769 39996 ft 419 kts 287°
2026-05-08 02:46 27.90580 -85.32992 39998 ft 420 kts 287°
2026-05-08 02:46 27.92472 -85.39233 39995 ft 419 kts 287°
2026-05-08 02:47 27.94356 -85.45460 39992 ft 419 kts 287°
2026-05-08 02:47 27.96231 -85.51669 39989 ft 419 kts 287°
2026-05-08 02:48 27.98101 -85.57878 39990 ft 418 kts 287°
2026-05-08 02:48 27.99971 -85.64095 39985 ft 418 kts 287°
2026-05-08 02:49 28.01841 -85.70324 39997 ft 418 kts 287°
2026-05-08 02:49 28.03699 -85.76525 39992 ft 417 kts 287°
2026-05-08 02:50 28.05549 -85.82712 39992 ft 417 kts 287°
2026-05-08 02:50 28.07399 -85.88908 39990 ft 417 kts 287°
2026-05-08 02:51 28.09248 -85.95113 39989 ft 416 kts 287°
2026-05-08 02:51 28.11090 -86.01306 39989 ft 416 kts 287°
2026-05-08 02:52 28.12930 -86.07504 39987 ft 416 kts 287°
2026-05-08 02:52 28.14769 -86.13711 39985 ft 413 kts 287°
2026-05-08 02:53 28.16592 -86.19875 39983 ft 415 kts 287°
2026-05-08 02:53 28.18412 -86.26041 39985 ft 415 kts 287°
2026-05-08 02:54 28.20230 -86.32210 39985 ft 415 kts 286°
2026-05-08 02:54 28.22044 -86.38377 39980 ft 412 kts 286°
2026-05-08 02:55 28.24765 -86.47649 39980 ft 412 kts 286°
2026-05-08 02:56 28.26571 -86.53818 39979 ft 413 kts 287°
2026-05-08 02:56 28.28358 -86.59936 39979 ft 412 kts 286°
2026-05-08 02:57 28.30160 -86.66112 39987 ft 412 kts 286°
2026-05-08 02:57 28.31955 -86.72272 39995 ft 411 kts 286°
2026-05-08 02:58 28.33749 -86.78390 39993 ft 410 kts 286°
2026-05-08 02:58 28.35560 -86.84572 39990 ft 411 kts 286°
2026-05-08 02:59 28.37356 -86.90721 39990 ft 411 kts 286°
2026-05-08 02:59 28.39146 -86.96859 39986 ft 409 kts 286°
2026-05-08 03:00 28.40929 -87.02988 39990 ft 411 kts 285°
2026-05-08 03:00 28.42717 -87.09143 39989 ft 409 kts 286°
2026-05-08 03:01 28.44483 -87.15235 39980 ft 407 kts 285°
2026-05-08 03:01 28.46257 -87.21367 39982 ft 408 kts 286°
2026-05-08 03:02 28.48018 -87.27465 39985 ft 409 kts 286°
2026-05-08 03:02 28.49780 -87.33579 39982 ft 407 kts 285°
2026-05-08 03:03 28.51534 -87.39673 39978 ft 407 kts 286°
2026-05-08 03:03 28.53296 -87.45811 39981 ft 409 kts 285°
2026-05-08 03:04 28.55051 -87.51933 39984 ft 407 kts 286°
2026-05-08 03:04 28.56794 -87.58024 39974 ft 407 kts 285°
2026-05-08 03:05 28.58541 -87.64145 39974 ft 408 kts 285°
2026-05-08 03:05 28.60275 -87.70229 39991 ft 407 kts 285°
2026-05-08 03:06 28.62015 -87.76345 39994 ft 407 kts 285°
2026-05-08 03:06 28.63744 -87.82434 39991 ft 405 kts 285°
2026-05-08 03:07 28.65477 -87.88551 39998 ft 407 kts 285°
2026-05-08 03:07 28.67211 -87.94679 39992 ft 406 kts 285°
2026-05-08 03:08 28.68928 -88.00761 39988 ft 406 kts 285°
2026-05-08 03:08 28.70651 -88.06879 39986 ft 406 kts 285°
2026-05-08 03:09 28.72373 -88.13002 39977 ft 405 kts 285°
2026-05-08 03:09 28.74083 -88.19096 39984 ft 405 kts 285°
2026-05-08 03:10 28.75784 -88.25170 39983 ft 405 kts 285°
2026-05-08 03:10 28.77488 -88.31262 39980 ft 404 kts 284°
2026-05-08 03:11 28.79187 -88.37355 39984 ft 405 kts 284°
2026-05-08 03:11 28.80887 -88.43459 39974 ft 402 kts 285°
2026-05-08 03:12 28.82581 -88.49553 39975 ft 403 kts 284°
2026-05-08 03:12 28.84267 -88.55633 39979 ft 403 kts 284°
2026-05-08 03:13 28.85949 -88.61707 39971 ft 403 kts 285°
2026-05-08 03:13 28.87663 -88.67779 39991 ft 404 kts 288°
2026-05-08 03:14 28.90600 -88.73283 39996 ft 415 kts 304°
2026-05-08 03:14 28.94349 -88.78252 39990 ft 415 kts 304°
2026-05-08 03:15 28.98115 -88.83231 39985 ft 414 kts 304°
2026-05-08 03:15 29.01878 -88.88224 39986 ft 416 kts 304°
2026-05-08 03:16 29.05638 -88.93223 39987 ft 414 kts 304°
2026-05-08 03:16 29.09372 -88.98194 39991 ft 414 kts 304°
2026-05-08 03:17 29.13133 -89.03210 39984 ft 414 kts 304°
2026-05-08 03:17 29.16881 -89.08216 39987 ft 414 kts 304°
2026-05-08 03:18 29.20610 -89.13201 39983 ft 413 kts 304°
2026-05-08 03:18 29.24329 -89.18182 39978 ft 414 kts 304°
2026-05-08 03:19 29.28076 -89.23203 39981 ft 413 kts 303°
2026-05-08 03:19 29.31792 -89.28191 39979 ft 414 kts 303°
2026-05-08 03:20 29.35526 -89.33211 39975 ft 415 kts 303°
2026-05-08 03:20 29.39275 -89.38254 39976 ft 414 kts 303°
2026-05-08 03:21 29.43001 -89.43273 39970 ft 414 kts 303°
2026-05-08 03:21 29.46716 -89.48284 39973 ft 414 kts 303°
2026-05-08 03:22 29.50442 -89.53316 39973 ft 414 kts 303°
2026-05-08 03:22 29.54183 -89.58375 39971 ft 414 kts 303°
2026-05-08 03:23 29.57890 -89.63394 39968 ft 414 kts 303°
2026-05-08 03:23 29.61592 -89.68411 39988 ft 412 kts 303°
2026-05-08 03:24 29.65308 -89.73455 39990 ft 413 kts 303°
2026-05-08 03:24 29.69009 -89.78485 39990 ft 413 kts 303°
2026-05-08 03:25 29.72723 -89.83538 39990 ft 414 kts 303°
2026-05-08 03:25 29.76426 -89.88581 39990 ft 413 kts 303°
2026-05-08 03:26 29.80151 -89.93663 39992 ft 413 kts 303°
2026-05-08 03:26 29.83849 -89.98714 39990 ft 414 kts 303°
2026-05-08 03:27 29.86983 -90.04095 39990 ft 407 kts 295°
2026-05-08 03:27 29.89884 -90.09689 39989 ft 407 kts 295°
2026-05-08 03:28 29.92765 -90.15255 39988 ft 404 kts 295°
2026-05-08 03:28 29.95645 -90.20824 39986 ft 405 kts 294°
2026-05-08 03:29 29.98526 -90.26405 39989 ft 406 kts 294°
2026-05-08 03:29 30.01399 -90.31973 39988 ft 403 kts 294°
2026-05-08 03:30 30.05674 -90.40279 39987 ft 404 kts 294°
2026-05-08 03:31 30.11402 -90.51432 39982 ft 402 kts 294°
2026-05-08 03:32 30.15654 -90.59735 39982 ft 404 kts 294°
2026-05-08 03:32 30.18514 -90.65327 39979 ft 401 kts 293°
2026-05-08 03:33 30.21357 -90.70892 40000 ft 399 kts 293°
2026-05-08 03:33 30.24166 -90.76402 39994 ft 400 kts 293°
2026-05-08 03:34 30.26971 -90.81910 39996 ft 398 kts 293°
2026-05-08 03:34 30.29767 -90.87408 39994 ft 398 kts 293°
2026-05-08 03:35 30.32560 -90.92908 39996 ft 396 kts 293°
2026-05-08 03:35 30.35349 -90.98406 39994 ft 395 kts 293°
2026-05-08 03:36 30.38118 -91.03876 39997 ft 398 kts 293°
2026-05-08 03:36 30.40898 -91.09370 39992 ft 392 kts 293°
2026-05-08 03:37 30.43684 -91.14892 39992 ft 397 kts 292°
2026-05-08 03:37 30.46471 -91.20417 39993 ft 394 kts 292°
2026-05-08 03:38 30.49231 -91.25897 39991 ft 395 kts 293°
2026-05-08 03:38 30.51999 -91.31401 39990 ft 396 kts 292°
2026-05-08 03:39 30.54756 -91.36890 39990 ft 393 kts 292°
2026-05-08 03:39 30.57497 -91.42355 39987 ft 392 kts 292°
2026-05-08 03:40 30.60245 -91.47845 39986 ft 394 kts 293°
2026-05-08 03:40 30.62973 -91.53297 39985 ft 392 kts 292°
2026-05-08 03:41 30.65725 -91.58810 39980 ft 392 kts 292°
2026-05-08 03:41 30.68448 -91.64271 39977 ft 391 kts 292°
2026-05-08 03:43 30.76658 -91.80782 39989 ft 392 kts 292°
2026-05-08 03:43 30.79373 -91.86258 39986 ft 391 kts 292°
2026-05-08 03:44 30.82073 -91.91708 39985 ft 389 kts 292°
2026-05-08 03:44 30.84776 -91.97179 39984 ft 392 kts 292°
2026-05-08 03:45 30.87472 -92.02636 39989 ft 389 kts 292°
2026-05-08 03:45 30.90167 -92.08105 39989 ft 393 kts 292°